Content
SEND FEEDBACK

Daily
Averages
Monthly
Summary
Spain

SANTANDER, SPAIN


Home > Europe > Spain
Elevation: 213 feet     Latitude: 43 28N     Longitude: 003 49W

WEATHER
 
SELECT A DAY
Number of Records: 186,538;   Date Range: 7/1/96 - 11/26/14
 
SHARE

PRINT THIS DATA

[ ← Previous Day ]
WEATHER ALMANAC - JANUARY 3, 2013
[ Next Day → ]
[ °C ]   °F
Weather ElementAverageHighLow
Temperature49.2 °F53.6 °F (12:00 pm)42.8 °F (9:00 am)
Dewpoint43.4 °F48.2 °F (10:30 am)39.2 °F (10:00 pm)
Humidity81.4 %100 % (6:00 am)67 % (2:00 pm)
Barometer30.65 in30.69 in (10:30 am)30.63 in (6:00 am)
Wind Speed5.2 mph12.7 mph (3:30 pm)
Weather ElementAverage
Visibility6 mi
Wind DirectionENE (55.9 °)

Weather ElementTotal
Precipitation---
Heating Degree Days16.8 (Base 65)
Averaged from 34 records on January 3, 2013
WEATHER CONDITIONS BREAKOUT
WIND DIRECTION BREAKOUT
WEATHER BY HOUR - JANUARY 3, 2013
[ °C ]   °F
Local TimeTemperatureDewpointHumidityBarometerVisibilityWind DirectionWind SpeedGust SpeedPrecipitationEventsConditions
6:00 AM46.4 °F46.4 °F100 %30.63 in6.2 miCalmMostly Cloudy
6:30 AM46.4 °F46.4 °F100 %30.63 in3.7 miCalmMostly Cloudy
7:00 AM46.4 °F46.4 °F100 %30.63 in6.2 miCalmMostly Cloudy
7:30 AM46.4 °F46.4 °F100 %30.63 in6.2 miCalmMostly Cloudy
8:00 AM46.4 °F44.6 °F93 %30.66 in6.2 miCalmScattered Clouds
8:30 AM44.6 °F44.6 °F100 %30.66 in6.2 miSouth (190°)1.2 mphPartly Cloudy
9:00 AM42.8 °F42.8 °F100 %30.66 in6.2 miCalmFogShallow Fog
9:30 AM46.4 °F46.4 °F100 %30.66 in6.2 miCalmFogShallow Fog
10:00 AM46.4 °F46.4 °F100 %30.66 in6.2 miCalmPartly Cloudy
10:30 AM48.2 °F48.2 °F100 %30.69 in6.2 miCalmPartly Cloudy
11:00 AM48.2 °F46.4 °F93 %30.69 in6.2 miVariable1.2 mphPartly Cloudy
11:30 AM51.8 °F48.2 °F88 %30.66 in6.2 miCalmPartly Cloudy
12:00 PM53.6 °F44.6 °F72 %30.66 in6.2 miVariable1.2 mphPartly Cloudy
12:30 PM53.6 °F44.6 °F72 %30.66 in6.2 miEast (80°)6.9 mphPartly Cloudy
1:00 PM53.6 °F44.6 °F72 %30.66 in6.2 miENE (70°)8.1 mphPartly Cloudy
2:00 PM53.6 °F42.8 °F67 %30.63 inENE (70°)9.2 mphClear
2:30 PM53.6 °F42.8 °F67 %30.63 inENE (70°)9.2 mphClear
3:00 PM53.6 °F42.8 °F67 %30.63 inENE (70°)8.1 mphClear
3:30 PM53.6 °F42.8 °F67 %30.63 inENE (70°)12.7 mphClear
4:00 PM53.6 °F42.8 °F67 %30.63 inEast (90°)11.5 mphClear
4:30 PM51.8 °F42.8 °F71 %30.63 inEast (80°)11.5 mphClear
5:00 PM51.8 °F41.0 °F67 %30.66 inEast (90°)12.7 mphClear
5:30 PM51.8 °F42.8 °F71 %30.66 inEast (90°)8.1 mphClear
6:00 PM50.0 °F41.0 °F71 %30.66 inESE (120°)9.2 mphClear
6:30 PM50.0 °F41.0 °F71 %30.66 inESE (110°)8.1 mphClear
7:00 PM48.2 °F41.0 °F76 %30.66 inEast (80°)9.2 mphClear
7:30 PM48.2 °F41.0 °F76 %30.66 inENE (70°)8.1 mphClear
8:00 PM48.2 °F42.8 °F82 %30.66 inEast (90°)9.2 mphClear
8:30 PM48.2 °F41.0 °F76 %30.66 inEast (90°)3.5 mphClear
9:00 PM46.4 °F41.0 °F81 %30.66 inEast (80°)2.3 mphClear
9:30 PM46.4 °F41.0 °F81 %30.66 inEast (90°)4.6 mphClear
10:00 PM48.2 °F39.2 °F71 %30.66 inEast (90°)10.4 mphClear
10:30 PM48.2 °F39.2 °F71 %30.66 inESE (110°)9.2 mphClear
11:00 PM46.4 °F39.2 °F76 %30.66 inVariable2.3 mphClear
Hourly data recorded from LEXJ, located miles away from Santander, Spain







STORIES FROM OUR PARTNERS